DMSP 5D-2 F13 DEB, 40676

Orbit data source: Space-Track

DMSP 5D-2 F13 DEB, 40676 is space debris in SSO originally from a launch on Fri, 24 Mar 1995 UTC launched from the Air Force Western Test Range (AFWTR). Debris objects in space refer to the collection of defunct objects orbiting the Earth. Examples of debris include non-operational satellites, rocket bodies, and fragments generated from explosions, collisions, or faulty payload assembly.

Loading next visibility...
Identifier
40676, 1995-015FQ
Orbit
SSO
Last TLE update
2 days ago
Origin
Manufacturer
Unknown
Mission
Spacecraft
Bus & Motor
Unknown
Mass
Unknown
Launch date (UTC)
1995-03-24 (30 years ago)
Launch vehicle
Unknown
Launch site
Air Force Western Test Range (AFWTR)
Object type
Payload
Rocket body
Debris
Shape & HBR
Unknown
Radar Cross Section
Small (<0.1 m²)

Expand to show TLE details & history

TLE from 2 days ago
0 DMSP 5D-2 F13 DEB
1 40676U 95015FQ  25181.30770569  .00003084  00000-0  10556-2 0  9991
2 40676  98.7006 211.6654 0004304  13.3313 346.7986 14.36986005525798
Epoch: 2025-06-30T07:23Z
TLE epoch observation values (Epoch: 2025-06-30T07:23:05.771Z)
Latitude
-0.00002°
Longitude
-177.72803°
Altitude
768.417 km
Speed
7.472 km/s
True Right ascension
14h 06m 39s
True Declination
0° 00' 00"
Sunlit
Object was in daylight at epoch
Visualization orbit readout
Latitude
-68.63694°
Longitude
-152.86937°
Altitude
793.551 km
Speed
7.456 km/s
Apparent Right ascension
07h 11m 15s
Apparent Declination
-75° 18' 06"
Sunlit
Object is in full shadow
Visualization observer readout
Local Sidereal Time
17:32:36
Azimuth
190.106° SSW
Elevation
-52.895°
Doppler factor
1
Orbital elements
Apogee altitude
768.684 km
Perigee altitude
762.535 km
Semi-major axis
7,143.747 km
Eccentricity
0.00043
Inclination
98.7006°
RAAN
211.6654°
Arg. of periapsis
13.3313°
True anomaly
Unknown
Mean anomaly
346.7986°
Eccentric anomaly
Unknown
Mean motion
3.59463 °/min
Orbital period
100.15 mins
BSTAR
0.0010556
Loading maneuver chart data...
Loading SW <> Apogee altitude chart data...

DMSP 5D-2 F13 DEB Visibility forecast

Observer location: undefined°, undefined°

Span
Click to sort rows by Start time (UTC) header in descending order
Start Az.
Max El. time (UTC)
Max El. Az.
Max El.
End time (UTC)
End Az.
8 mins2025-07-02 15:06:58.677Z8.345° NNE2025-07-02 15:10:58.677Z244.049° WSW43.419°2025-07-02 15:14:58.677Z201.767° SSW
5 mins2025-07-03 00:43:58.677Z92.706° ESE2025-07-03 00:45:58.677Z65.849° ENE16.743°2025-07-03 00:48:58.677Z26.671° NE
8 mins2025-07-03 02:20:58.677Z184.507° SSW2025-07-03 02:24:58.677Z271.261° WNW39.563°2025-07-03 02:28:58.677Z335.468° NNW
|